[[{"header":{"parameterUnit":"m.s-1","parameterCategory":1,"la1":30.2991,"la2":30.254,"lo1":-89.0895,"lo2":-89.0444,"dy":0.0017,"dx":0.0017,"nx":28,"ny":28,"refTime":"2025-05-25T09:00:00:Z","depth":0,"parameterNumber":2,"parameterNumberName":"U-component_of_WINDS"},"data":[0,0,0,0,0,0,0,0,0,0,0,0,0,0,0,0,0,0,0,0,0,0,0,0,0,0,0,0,0,0,0,0,0,0,0,0,0,0,0,0,0,0,0,0,0,0,0,0,0,0,0,0,0,0,0,0,0,0,1.137,1.1371,0,1.1419,1.142,1.142,1.1412,1.1411,1.141,1.141,1.1459,1.1461,1.1463,0,0,0,0,0,0,0,0,0,0,0,0,0,1.1269,1.1271,1.137,1.1371,1.1372,1.1419,1.142,1.142,1.1412,1.1411,1.141,1.1409,1.1458,1.1461,1.1463,0,0,0,0,0,0,0,0,0,0,0,0,0,1.1315,1.1271,1.137,1.1373,1.1374,1.1419,1.142,1.1421,1.1412,1.1411,1.141,1.1409,1.1457,1.146,1.1463,1.1508,0,0,1.1473,1.1474,0,0,0,0,0,0,0,0,1.1312,1.1318,1.1372,1.1373,1.1374,1.1408,1.1402,1.145,1.1413,1.1398,1.141,1.1408,1.1443,1.1447,1.1459,1.1511,1.1513,1.1473,1.1475,1.1477,1.1478,0,0,0,0,0,0,0,1.1309,1.1316,1.139,1.1373,1.1374,1.1372,1.1377,1.1411,1.1427,1.1399,1.1399,1.1404,1.1443,1.1456,1.146,1.1513,1.1473,1.1476,1.1478,1.1479,1.1603,1.1604,0,0,0,0,0,0,1.1305,1.1314,1.1388,1.1391,1.1339,1.1375,1.138,1.1399,1.1427,1.143,1.1406,1.1404,1.1451,1.1457,1.1462,1.1515,1.1477,1.148,1.1481,1.1601,1.1603,1.1604,0,0,0,0,0,0,1.1303,1.1312,1.1386,1.1352,1.1362,1.1378,1.1398,1.14,1.1413,1.1431,1.1434,1.1416,1.1451,1.1457,1.1497,1.1517,1.1481,1.1484,1.16,1.1602,1.1604,1.1623,0,0,0,0,0,0,1.13,1.1311,1.1329,1.1353,1.1363,1.142,1.14,1.1402,1.1419,1.1417,1.1442,1.1445,1.145,1.1492,1.15,1.152,1.1486,1.1598,1.1601,1.1603,1.162,1.1625,1.1629,0,0,0,0,0,1.1296,1.1332,1.133,1.1339,1.1386,1.1422,1.1428,1.1433,1.142,1.1438,1.1449,1.1444,1.1514,1.1496,1.1505,1.1527,1.1597,1.16,1.1603,1.1618,1.1624,1.1629,0,0,0,0,0,0,1.131,1.1335,1.1333,1.1378,1.1397,1.142,1.1442,1.144,1.1464,1.1461,1.1467,1.1472,1.1512,1.1523,1.1503,1.1571,1.1553,1.1558,1.1562,1.1568,1.1572,1.1568,1.1489,0,0,0,0,0,1.1318,1.1345,1.1366,1.1403,1.1414,1.1426,1.1442,1.1445,1.1466,1.1474,1.1488,1.1509,1.1535,1.1552,1.1577,1.1622,1.1627,1.1642,1.1646,1.165,1.1654,1.1677,1.1683,1.1615,1.1615,1.1615,0,0,1.1335,1.1352,1.1369,1.1407,1.1422,1.145,1.1433,1.1464,1.1484,1.1478,1.1516,1.1527,1.155,1.1592,1.1611,1.1603,1.1674,1.1654,1.1656,1.1658,1.1681,1.1687,1.1693,1.1617,1.1616,1.1616,0,0,1.138,1.1397,1.1429,1.1445,1.1469,1.1477,1.1485,1.1508,1.1515,1.1553,1.1549,1.1573,1.1619,1.1635,1.1649,1.1699,1.1695,1.1707,1.1731,1.1753,1.1759,1.1763,1.178,1.1787,1.1711,1.1712,1.1712,0,1.1398,1.144,1.1446,1.1476,1.1492,1.1489,1.1521,1.1536,1.1567,1.1578,1.1568,1.1625,1.164,1.1685,1.1697,1.1709,1.1717,1.1704,1.1758,1.1762,1.1767,1.1783,1.179,1.1713,1.1713,1.1713,1.1712,0,1.1461,1.149,1.1513,1.1543,1.1561,1.1593,1.1602,1.1621,1.1622,1.163,1.1668,1.1686,1.1715,1.1726,1.1727,1.1771,1.1764,1.1756,1.1738,1.1775,1.179,1.1796,1.1715,1.1714,1.1714,1.1714,0,0,1.1515,1.1548,1.1556,1.1569,1.1595,1.1617,1.1648,1.1676,1.1691,1.1712,1.1737,1.1776,1.1768,1.1784,1.1787,1.1807,1.1844,1.1796,1.1796,1.1803,1.1892,1.1897,1.1904,1.1842,1.1843,1.1844,1.189,0,1.1562,1.1616,1.1622,1.1671,1.1697,1.1693,1.172,1.1738,1.1747,1.177,1.178,1.1807,1.1795,1.1805,1.1824,1.1835,1.1862,1.1832,1.1864,1.1865,1.1858,1.1913,1.1919,1.1961,1.1896,1.1897,1.1897,0,1.1624,1.1647,1.1698,1.1719,1.173,1.1754,1.1779,1.1802,1.1822,1.1828,1.1845,1.1845,1.1876,1.1857,1.1899,1.1879,1.1893,1.19,1.1902,1.1904,1.1883,1.1915,1.1975,1.1981,1.1907,1.1906,1.1906,0,1.1657,1.1701,1.1737,1.1748,1.1775,1.1791,1.1803,1.1822,1.1838,1.186,1.187,1.1896,1.191,1.1929,1.1936,1.1922,1.1977,1.1959,1.1981,1.1981,1.1992,1.1991,1.2054,1.2003,1.2003,1.2003,1.2002,0,1.1708,1.1739,1.1752,1.1774,1.1808,1.1814,1.1848,1.1859,1.1876,1.1899,1.1898,1.192,1.1928,1.1951,1.1957,1.199,1.1996,1.2001,1.2002,1.2,1.1999,1.2008,1.2005,1.2004,1.2004,1.2004,1.2003,0,1.1751,1.1761,1.18,1.1821,1.1827,1.1852,1.187,1.189,1.1899,1.1929,1.1936,1.1949,1.1976,1.1985,1.2018,1.2021,1.206,1.2059,1.2053,1.2053,1.2074,1.2071,1.2143,1.2152,1.2096,1.2097,1.2097,0,1.1782,1.1806,1.183,1.1846,1.1858,1.1883,1.19,1.1906,1.1923,1.1948,1.1966,1.1992,1.2014,1.2057,1.2069,1.2094,1.2093,1.2116,1.2097,1.2094,1.2092,1.209,1.2092,1.212,1.212,1.2121,1.2121,0,1.1836,1.184,1.1864,1.1889,1.1908,1.1929,1.1948,1.1961,1.197,1.1989,1.2017,1.2033,1.2067,1.2093,1.2118,1.2129,1.2126,1.2127,1.2134,1.2132,1.2127,1.2129,1.2062,1.2126,1.2125,1.2125,1.2125,1.2124,1.1874,1.1894,1.1914,1.194,1.1956,1.1974,1.1994,1.2005,1.2028,1.2056,1.2058,1.2088,1.2107,1.214,1.2153,1.2175,1.2169,1.2178,1.218,1.2182,1.2183,1.2124,1.218,1.218,1.218,1.218,1.218,0,1.1927,1.1939,1.1963,1.199,1.2011,1.2007,1.2028,1.2045,1.2071,1.2089,1.211,1.2142,1.2167,1.2181,1.2206,1.2221,1.2221,1.2228,1.2226,1.2228,1.2188,1.218,1.2228,1.2228,1.2228,1.2228,1.2228,1.2228,1.1957,1.1991,1.1997,1.2038,1.205,1.2079,1.2091,1.2108,1.2122,1.2157,1.2178,1.2187,1.2203,1.2229,1.2252,1.2256,1.2264,1.2272,1.2274,1.2236,1.2231,1.2227,1.2219,1.2274,1.2274,1.2313,1.2313,1.2313]},{"header":{"parameterUnit":"m.s-1","parameterCategory":1,"la1":30.2991,"la2":30.254,"lo1":-89.0895,"lo2":-89.0444,"dy":0.0017,"dx":0.0017,"nx":28,"ny":28,"refTime":"2025-05-25T09:00:00:Z","depth":0,"parameterNumber":3,"parameterNumberName":"V-component_of_WINDS"},"data":[0,0,0,0,0,0,0,0,0,0,0,0,0,0,0,0,0,0,0,0,0,0,0,0,0,0,0,0,0,0,0,0,0,0,0,0,0,0,0,0,0,0,0,0,0,0,0,0,0,0,0,0,0,0,0,0,0,0,1.6926,1.6927,0,1.6987,1.6988,1.6989,1.6986,1.6985,1.6984,1.6983,1.7043,1.7046,1.7048,0,0,0,0,0,0,0,0,0,0,0,0,0,1.6804,1.6806,1.6926,1.6927,1.6928,1.6987,1.6988,1.6989,1.6986,1.6985,1.6984,1.6983,1.7042,1.7045,1.7048,0,0,0,0,0,0,0,0,0,0,0,0,0,1.686,1.6807,1.6926,1.6934,1.6935,1.6987,1.6988,1.6989,1.6986,1.6985,1.6983,1.6982,1.7041,1.7045,1.7049,1.7097,0,0,1.706,1.7061,0,0,0,0,0,0,0,0,1.6857,1.6865,1.6932,1.6933,1.6935,1.6978,1.6967,1.7025,1.6986,1.6967,1.6983,1.6982,1.7022,1.7027,1.7042,1.71,1.7102,1.706,1.7062,1.7064,1.7065,0,0,0,0,0,0,0,1.6853,1.6862,1.695,1.6933,1.6934,1.6933,1.6939,1.6978,1.7001,1.6968,1.6968,1.6975,1.7023,1.7038,1.7043,1.7103,1.706,1.7063,1.7065,1.7067,1.7203,1.7204,0,0,0,0,0,0,1.6848,1.6859,1.6948,1.6952,1.6892,1.6936,1.6943,1.6965,1.7,1.7005,1.6977,1.6975,1.7033,1.7039,1.7045,1.7104,1.7064,1.7067,1.7069,1.7202,1.7203,1.7205,0,0,0,0,0,0,1.6846,1.6856,1.6946,1.6906,1.6917,1.694,1.6964,1.6967,1.6982,1.7007,1.7011,1.6988,1.7032,1.704,1.7084,1.7106,1.7069,1.7072,1.72,1.7202,1.7204,1.7222,0,0,0,0,0,0,1.6842,1.6855,1.6875,1.6906,1.6919,1.6985,1.6965,1.6969,1.6989,1.6988,1.7019,1.7023,1.7031,1.7079,1.7088,1.711,1.7075,1.7198,1.7201,1.7203,1.7219,1.7224,1.7229,0,0,0,0,0,1.6838,1.6877,1.6876,1.6886,1.6944,1.6986,1.6994,1.7004,1.6991,1.701,1.7025,1.7022,1.7102,1.7083,1.7093,1.7117,1.7197,1.72,1.7203,1.7217,1.7223,1.7229,0,0,0,0,0,0,1.6847,1.6881,1.688,1.6931,1.6956,1.6986,1.701,1.701,1.7038,1.7036,1.7046,1.7053,1.7097,1.7111,1.709,1.7165,1.7147,1.7153,1.7155,1.7161,1.7165,1.7161,1.7078,0,0,0,0,0,1.6855,1.6887,1.6915,1.6957,1.6969,1.6988,1.7006,1.7012,1.7038,1.7048,1.7067,1.7091,1.7122,1.7142,1.7172,1.7221,1.7228,1.7242,1.7247,1.7251,1.7255,1.7282,1.7289,1.7216,1.7216,1.7216,0,0,1.6871,1.6894,1.6914,1.6959,1.6979,1.7011,1.6997,1.7031,1.7055,1.7053,1.7096,1.7111,1.7138,1.7185,1.7207,1.7199,1.7277,1.7255,1.7258,1.7261,1.7286,1.7293,1.73,1.7218,1.7217,1.7217,0,0,1.6918,1.6939,1.6976,1.6996,1.7027,1.7039,1.7047,1.7077,1.7087,1.7131,1.713,1.7157,1.721,1.723,1.7247,1.7301,1.7298,1.731,1.7334,1.736,1.7366,1.7371,1.739,1.7397,1.7314,1.7314,1.7314,0,1.6935,1.6985,1.6995,1.703,1.705,1.705,1.7087,1.7106,1.7144,1.7157,1.7147,1.7213,1.7232,1.7284,1.7297,1.731,1.732,1.7307,1.7364,1.737,1.7375,1.7393,1.74,1.7316,1.7315,1.7315,1.7315,0,1.7004,1.7038,1.7064,1.7102,1.7124,1.7161,1.7175,1.7197,1.72,1.7212,1.7256,1.7278,1.7312,1.7325,1.7328,1.7376,1.737,1.7362,1.7345,1.7383,1.74,1.7407,1.7317,1.7317,1.7316,1.7316,0,0,1.7059,1.7102,1.7111,1.7128,1.7161,1.7188,1.7223,1.7257,1.7275,1.7301,1.7331,1.7375,1.7368,1.7387,1.7392,1.7415,1.7456,1.7404,1.7405,1.7413,1.7511,1.7517,1.7525,1.7454,1.7455,1.7456,1.7508,0,1.711,1.7174,1.7184,1.724,1.7272,1.7271,1.7302,1.7325,1.7337,1.7365,1.7378,1.7409,1.7397,1.7409,1.7431,1.7446,1.7476,1.7442,1.7481,1.7483,1.7475,1.7534,1.7541,1.7589,1.7515,1.7516,1.7517,0,1.7178,1.7207,1.7266,1.7295,1.7308,1.7336,1.7368,1.7394,1.742,1.7427,1.7449,1.7451,1.7486,1.7467,1.7516,1.7493,1.7509,1.7518,1.752,1.7525,1.7503,1.754,1.7604,1.7612,1.7528,1.7527,1.7526,0,1.7213,1.7266,1.7308,1.7323,1.7357,1.7377,1.7392,1.7416,1.7436,1.7463,1.7476,1.7506,1.7523,1.7546,1.7556,1.7541,1.7604,1.7585,1.7611,1.7611,1.7625,1.7624,1.7693,1.7635,1.7634,1.7634,1.7634,0,1.7269,1.7305,1.7325,1.7351,1.7391,1.7401,1.7441,1.7455,1.7477,1.7505,1.7506,1.7532,1.7543,1.7571,1.7579,1.7618,1.7626,1.7632,1.7634,1.7632,1.7632,1.7644,1.7641,1.7636,1.7636,1.7635,1.7635,0,1.7315,1.7329,1.7376,1.7404,1.7412,1.7441,1.7465,1.749,1.7501,1.7537,1.7546,1.7564,1.7597,1.7609,1.7648,1.7653,1.7699,1.7698,1.7691,1.7691,1.7716,1.7714,1.7796,1.7807,1.7741,1.7741,1.7742,0,1.735,1.7378,1.741,1.7429,1.7445,1.7476,1.7497,1.7507,1.7528,1.7559,1.758,1.7612,1.7639,1.7691,1.7707,1.7737,1.7737,1.7763,1.7741,1.7739,1.7737,1.7736,1.7739,1.7767,1.7768,1.7769,1.7769,0,1.7411,1.7417,1.7446,1.7478,1.7502,1.7528,1.7552,1.7568,1.7582,1.7605,1.7638,1.7659,1.77,1.7732,1.7762,1.7777,1.7775,1.7776,1.7783,1.7783,1.7777,1.7781,1.7702,1.7774,1.7774,1.7773,1.7773,1.7773,1.7453,1.7478,1.7504,1.7537,1.7557,1.7579,1.7604,1.7619,1.7648,1.7682,1.7686,1.7722,1.7746,1.7787,1.7803,1.7831,1.7823,1.7834,1.7837,1.784,1.7842,1.7773,1.7836,1.7836,1.7836,1.7836,1.7836,0,1.7515,1.7531,1.7561,1.7596,1.7621,1.7618,1.7645,1.7666,1.7698,1.7721,1.7747,1.7786,1.7817,1.7835,1.7866,1.7884,1.7884,1.7892,1.7891,1.7894,1.7846,1.7837,1.7892,1.7892,1.7892,1.7892,1.7892,1.7892,1.755,1.7592,1.76,1.7651,1.7668,1.7704,1.7719,1.774,1.7758,1.7802,1.7828,1.7839,1.786,1.7893,1.792,1.7925,1.7936,1.7945,1.7949,1.7904,1.7898,1.7892,1.7884,1.7947,1.7947,1.7994,1.7995,1.7995]}]]